| time (UTC) | temp C | wind direction | speed KPH | gust KPH | rain 1hr cm | rain 24hr cm | rain mn cm | humidity % | barometer mb |
| 20260505063329 | 10 | 196 | 3.2 | 9.7 | 0.00 | 0.00 | 0.00 | 91 | 1013.9 |
| 20260505061817 | 10 | 169 | 3.2 | 9.7 | 0.00 | 0.00 | 0.00 | 90 | 1013.9 |
| 20260505060333 | 11 | 210 | 6.4 | 14.5 | 0.00 | 0.00 | 0.00 | 89 | 1013.9 |
| 20260505054823 | 11 | 192 | 6.4 | 11.3 | 0.00 | 0.00 | 0.00 | 89 | 1013.8 |
| 20260505053319 | 11 | 179 | 4.8 | 11.3 | 0.00 | 0.00 | 0.00 | 89 | 1013.8 |
| 20260505051848 | 11 | 232 | 4.8 | 9.7 | 0.00 | 0.00 | 0.00 | 88 | 1013.8 |
| 20260505050336 | 11 | 181 | 3.2 | 9.7 | 0.00 | 0.00 | 0.00 | 88 | 1013.6 |
| 20260505040359 | 12 | 181 | 6.4 | 16.1 | 0.00 | 0.00 | 0.00 | 84 | 1012.7 |
| 20260505034826 | 13 | 203 | 12.9 | 20.9 | 0.00 | 0.00 | 0.00 | 82 | 1012.4 |
| 20260505033338 | 13 | 237 | 12.9 | 22.5 | 0.00 | 0.00 | 0.00 | 80 | 1012.3 |
| 20260505031843 | 14 | 202 | 12.9 | 22.5 | 0.00 | 0.00 | 0.00 | 78 | 1012.0 |
| 20260505030332 | 15 | 216 | 14.5 | 25.7 | 0.00 | 0.00 | 0.00 | 75 | 1011.8 |
| 20260505024834 | 16 | 229 | 14.5 | 22.5 | 0.00 | 0.00 | 0.00 | 72 | 1011.8 |
| 20260505023323 | 17 | 215 | 8.0 | 14.5 | 0.00 | 0.00 | 0.00 | 70 | 1011.6 |
| 20260505021835 | 18 | 236 | 6.4 | 16.1 | 0.00 | 0.00 | 0.00 | 69 | 1011.7 |
| 20260505020323 | 20 | 220 | 8.0 | 16.1 | 0.00 | 0.00 | 0.00 | 67 | 1011.7 |
| 20260505014831 | 20 | 201 | 4.8 | 11.3 | 0.00 | 0.00 | 0.00 | 69 | 1011.7 |
| 20260505013337 | 20 | 179 | 6.4 | 14.5 | 0.00 | 0.00 | 0.00 | 70 | 1011.7 |
| 20260505011826 | 21 | 206 | 9.7 | 22.5 | 0.00 | 0.00 | 0.00 | 69 | 1011.8 |
| 20260505010334 | 21 | 184 | 6.4 | 14.5 | 0.00 | 0.00 | 0.00 | 71 | 1011.9 |
| 20260505004822 | 21 | 181 | 6.4 | 14.5 | 0.00 | 0.00 | 0.00 | 69 | 1011.9 |
| 20260505003331 | 21 | 205 | 6.4 | 17.7 | 0.00 | 0.00 | 0.00 | 68 | 1011.9 |
| 20260505001821 | 21 | 231 | 8.0 | 14.5 | 0.00 | 0.00 | 0.00 | 68 | 1011.8 |
| 20260505000330 | 22 | 128 | 3.2 | 11.3 | 0.00 | 0.00 | 0.00 | 67 | 1012.0 |
| 20260504234843 | 22 | 192 | 6.4 | 16.1 | 0.00 | 0.00 | 0.00 | 64 | 1012.1 |
| 20260504233352 | 23 | 221 | 4.8 | 17.7 | 0.00 | 0.00 | 0.00 | 66 | 1012.1 |
| 20260504231839 | 22 | 116 | 4.8 | 12.9 | 0.00 | 0.00 | 0.00 | 68 | 1012.3 |
| 20260504230325 | 22 | 134 | 6.4 | 17.7 | 0.00 | 0.00 | 0.00 | 69 | 1012.4 |
| 20260504224836 | 22 | 211 | 8.0 | 14.5 | 0.00 | 0.00 | 0.00 | 68 | 1012.4 |
| 20260504223342 | 21 | 207 | 1.6 | 14.5 | 0.00 | 0.00 | 0.00 | 71 | 1012.6 |
| 20260504221832 | 21 | 174 | 6.4 | 14.5 | 0.00 | 0.00 | 0.00 | 72 | 1012.7 |
| 20260504220338 | 21 | 180 | 3.2 | 16.1 | 0.00 | 0.00 | 0.00 | 70 | 1012.9 |
| 20260504214824 | 21 | 118 | 4.8 | 14.5 | 0.00 | 0.00 | 0.00 | 69 | 1013.1 |
| 20260504213336 | 21 | 181 | 6.4 | 14.5 | 0.00 | 0.00 | 0.00 | 66 | 1013.1 |
| 20260504211844 | 21 | 170 | 3.2 | 9.7 | 0.00 | 0.00 | 0.00 | 68 | 1013.3 |
| 20260504210331 | 21 | 169 | 6.4 | 12.9 | 0.00 | 0.00 | 0.00 | 69 | 1013.4 |
| 20260504204839 | 20 | 183 | 8.0 | 16.1 | 0.00 | 0.00 | 0.00 | 70 | 1013.7 |
| 20260504203327 | 20 | 129 | 6.4 | 12.9 | 0.00 | 0.00 | 0.00 | 74 | 1013.9 |
| 20260504201834 | 19 | 157 | 3.2 | 14.5 | 0.00 | 0.00 | 0.00 | 73 | 1013.8 |
| 20260504200326 | 18 | 138 | 3.2 | 12.9 | 0.00 | 0.00 | 0.00 | 75 | 1013.9 |
| 20260504194856 | 18 | 69 | 6.4 | 14.5 | 0.00 | 0.00 | 0.00 | 76 | 1013.9 |
| 20260504193326 | 17 | 174 | 3.2 | 16.1 | 0.00 | 0.00 | 0.00 | 75 | 1014.0 |
| 20260504191829 | 17 | 136 | 3.2 | 14.5 | 0.00 | 0.00 | 0.00 | 79 | 1014.1 |
| 20260504190341 | 16 | 127 | 4.8 | 16.1 | 0.00 | 0.00 | 0.00 | 78 | 1014.2 |
| 20260504184830 | 16 | 127 | 3.2 | 9.7 | 0.00 | 0.00 | 0.00 | 81 | 1014.4 |
| 20260504183321 | 15 | 148 | 3.2 | 11.3 | 0.00 | 0.00 | 0.00 | 82 | 1014.3 |
| 20260504181832 | 15 | 135 | 4.8 | 12.9 | 0.00 | 0.00 | 0.00 | 82 | 1014.3 |
| 20260504180323 | 15 | 172 | 4.8 | 11.3 | 0.00 | 0.00 | 0.00 | 83 | 1014.2 |
| 20260504174830 | 14 | 173 | 3.2 | 11.3 | 0.00 | 0.00 | 0.00 | 86 | 1014.3 |
| 20260504173338 | 13 | 104 | 3.2 | 9.7 | 0.00 | 0.00 | 0.00 | 86 | 1014.1 |
| 20260504171843 | 13 | 175 | 8.0 | 16.1 | 0.00 | 0.00 | 0.00 | 87 | 1014.3 |
| 20260504170333 | 13 | 152 | 6.4 | 16.1 | 0.00 | 0.00 | 0.00 | 87 | 1014.2 |
| 20260504160331 | 12 | 155 | 6.4 | 14.5 | 0.00 | 0.00 | 0.00 | 91 | 1014.0 |
| 20260504150325 | 11 | 147 | 4.8 | 12.9 | 0.00 | 0.00 | 0.00 | 93 | 1013.9 |
| 20260504140320 | 10 | 119 | 1.6 | 11.3 | 0.00 | 0.00 | 0.00 | 95 | 1013.3 |
| 20260504130327 | 10 | 172 | 3.2 | 11.3 | 0.00 | 0.00 | 0.00 | 93 | 1012.3 |
| 20260504110326 | 11 | 186 | 9.7 | 19.3 | 0.00 | 0.00 | 0.00 | 92 | 1011.3 |
| 20260504100323 | 11 | 180 | 9.7 | 14.5 | 0.00 | 0.00 | 0.00 | 90 | 1011.1 |
| 20260504081821 | 14 | 188 | 6.4 | 12.9 | 0.00 | 0.00 | 0.00 | 77 | 1010.2 |
| 20260504080326 | 16 | 204 | 9.7 | 16.1 | 0.00 | 0.00 | 0.00 | 72 | 1010.0 |
| 20260504070332 | 19 | 240 | 14.5 | 27.4 | 0.00 | 0.00 | 0.00 | 60 | 1009.5 |